Location: Kalberh�ni
(46.4610°N, 7.2453°E)
Time: 09:59:05
(UTC+00:00)

X-37B - Pass Details

Date: 25 September 2021
Orbit: 385 x 389 km, 45.0° (Epoch: 13 October)

Event Time Altitude Azimuth Distance (km) Brightness Sun altitude
Exits shadow 03:40:57 37° 181° (S) 621 1.4 -17.9°
Maximum altitude 03:41:20 39° 161° (SSE) 599 1.5 -17.9°
Drops below altitude 10° 03:44:20 10° 91° (E) 1,415 4.5 -17.4°
Sets 03:46:28 0° 84° (E) 2,272 6.1 -17.0°
